Tracking 29892 objects as of 21-Nov-2024
HD Live streaming from Space Station
objects crossing your sky now

SKYNET 1

Track SKYNET 1 now!
SKYNET 1 is classified as:


NORAD ID: 4250
Int'l Code: 1969-101A
Perigee: 35,687.6 km
Apogee: 35,900.4 km
Inclination: 1.1 °
Period: 1,436.1 minutes
Semi major axis: 42165 km
RCS: 1.2928 m2 (large)
Launch date: November 22, 1969
Source: United Kingdom (UK)
Launch site: AIR FORCE EASTERN TEST RANGE (AFETR)
Your satellite tracking list
Your tracking list is empty




NASA's NSSDC Master Catalog

Two Line Element Set (TLE):
1 04250U 69101A   24325.63128892 -.00000073  00000-0  00000-0 0  9994
2 04250   1.0509 275.1642 0025230 315.7538 309.2162  1.00270768128767
Source of the keplerian elements: AFSPC